Sign in

Goboko Update

Goboko is set to continue

The Goboko booking system is to continue under a new operator, a member of one of our longest-subscribed flying clubs

The new and previous operators of the site are working to ensure there will be no interruption to your booking service as the transition takes place. Of course, aircraft booking will continue to be free

Thank you for your continued commitment to Goboko

Info

Aviation weather

METAR KDAB 211453Z 25009KT 10SM SCT028 SCT040 SCT070 31/26 A2992 RMK AO2 SLP131 T03110261 58002

TAF KDAB 211347Z 2114/2212 25008KT P6SM SCT035 SCT250 TEMPO 2114/2116 BKN015 BKN035 FM212000 26007KT P6SM VCTS SCT040CB SCT250 TEMPO 2120/2123 3SM TSRA BKN035CB OVC080 FM220000 24005KT P6SM SCT040 BKN120

Aviation weather from ADDS. Re-check weather before flight.

-